CDT,Max TemperatureF,Mean TemperatureF,Min TemperatureF,Max Dew PointF,MeanDew PointF,Min DewpointF,Max Humidity, Mean Humidity, Min Humidity, Max Sea Level PressureIn, Mean Sea Level PressureIn, Min Sea Level PressureIn, Max VisibilityMiles, Mean VisibilityMiles, Min VisibilityMiles, Max Wind SpeedMPH, Mean Wind SpeedMPH, Max Gust SpeedMPH,PrecipitationIn, CloudCover, Events, WindDirDegrees
2013-9-1,99,86,73,75,71,69,90,63,40,29.88,29.84,29.80,10,10,10,12,3,,0.00,1,Rain-Thunderstorm,235
2013-9-2,91,82,74,75,73,70,90,73,53,29.96,29.90,29.85,10,10,9,12,5,16,0.01,4,Rain-Thunderstorm,340
2013-9-3,91,80,68,68,65,62,80,61,43,30.04,29.99,29.94,10,10,10,10,5,,0.00,1,,59
2013-9-4,89,74,59,63,59,55,91,63,32,30.15,30.09,30.04,10,10,9,9,3,20,0.00,0,,58
2013-9-5,90,75,60,64,60,57,90,64,33,30.18,30.13,30.09,10,10,10,9,3,,0.00,0,,56
2013-9-6,91,76,61,69,65,59,91,69,37,30.15,30.09,30.02,10,10,10,9,2,,0.00,0,,60
2013-9-7,98,82,66,69,65,60,93,62,30,30.07,30.01,29.94,10,10,10,7,1,,0.00,0,,138
2013-9-8,100,84,68,68,66,62,92,57,30,29.99,29.94,29.88,10,10,10,9,3,,0.00,1,,160
2013-9-9,99,85,71,68,66,64,83,56,32,30.02,29.98,29.93,10,10,10,9,4,,0.00,0,,161
2013-9-10,99,84,67,69,66,63,90,60,29,30.13,30.08,30.01,10,10,10,7,2,,0.00,0,,190
2013-9-11,96,83,71,77,71,66,91,72,38,30.15,30.10,30.06,10,10,8,12,2,,0.08,3,Rain-Thunderstorm,47
2013-9-12,95,84,72,75,72,68,95,77,44,30.08,30.01,29.96,10,10,7,18,3,30,0.99,2,Rain-Thunderstorm,1
2013-9-13,84,74,63,70,60,53,95,62,35,30.06,30.01,29.96,10,10,10,15,7,21,0.00,2,Rain,53
2013-9-14,79,67,55,56,52,47,91,65,33,30.12,30.07,30.03,10,10,10,10,4,17,0.00,0,,73
2013-9-15,89,68,48,58,52,46,91,62,27,30.12,30.07,30.04,10,10,10,7,2,,0.00,0,,216
2013-9-16,91,76,60,67,58,55,87,61,32,30.15,30.11,30.07,10,10,10,14,4,22,0.00,0,,63
2013-9-17,91,77,63,66,63,60,94,67,36,30.16,30.10,30.02,10,10,10,10,6,,0.00,0,,68
2013-9-18,95,80,67,70,66,63,90,66,38,30.08,30.01,29.97,10,10,10,13,4,18,0.00,2,Rain-Thunderstorm,122
2013-9-19,93,81,69,72,69,67,95,64,44,30.07,30.00,29.92,10,10,9,12,5,,0.00,1,,135
2013-9-20,79,74,68,73,70,67,100,96,64,29.95,29.91,29.84,10,7,1,12,5,,1.66,7,Rain,26
2013-9-21,80,69,57,66,55,50,94,67,34,29.98,29.91,29.87,10,10,4,15,6,24,0.00,3,,1
2013-9-22,77,64,51,57,53,49,92,70,41,30.00,29.94,29.89,10,10,10,13,3,,0.00,0,,47
2013-9-23,81,66,52,61,56,51,95,71,40,29.96,29.91,29.86,10,10,10,13,3,,0.00,0,,99
2013-9-24,89,74,60,64,59,56,93,64,35,29.89,29.85,29.78,10,10,10,8,2,,0.00,1,,261
2013-9-25,83,70,58,61,58,56,90,67,42,29.86,29.83,29.81,10,10,10,9,4,,0.00,1,,304
2013-9-26,86,71,57,66,61,55,93,75,45,29.98,29.93,29.86,10,10,10,9,2,,0.00,0,,91
2013-9-27,86,74,62,70,65,61,100,82,51,30.06,30.02,29.97,10,8,2,9,1,,0.00,2,,96
2013-9-28,87,75,64,73,68,62,96,76,52,30.09,30.02,29.96,10,10,8,12,5,16,0.01,5,Rain,162
2013-9-29,77,73,69,72,71,69,100,95,78,30.01,29.97,29.93,10,7,1,8,3,,10.31,8,Rain,47
2013-9-30,78,73,68,72,69,68,100,92,74,29.96,29.93,29.89,10,6,0,8,4,,0.00,7,Fog,47